TimeMDT,TemperatureF,Dew PointF,Humidity,Sea Level PressureIn,VisibilityMPH,Wind Direction,Wind SpeedMPH,Gust SpeedMPH,PrecipitationIn,Events,Conditions,WindDirDegrees,DateUTC
12:53 AM,43.0,39.9,89,29.95,10.0,South,4.6,-,N/A,,Mostly Cloudy,170,2007-05-23 06:53:00
1:53 AM,43.0,39.9,89,29.93,10.0,South,5.8,-,N/A,,Mostly Cloudy,170,2007-05-23 07:53:00
2:53 AM,43.0,39.9,89,29.93,10.0,SSE,8.1,-,N/A,,Mostly Cloudy,160,2007-05-23 08:53:00
3:53 AM,43.0,39.9,89,29.96,10.0,South,6.9,-,N/A,,Mostly Cloudy,180,2007-05-23 09:53:00
4:53 AM,43.0,39.0,86,29.97,10.0,South,3.5,-,N/A,,Mostly Cloudy,180,2007-05-23 10:53:00
5:53 AM,42.1,39.0,89,29.97,10.0,SSE,4.6,-,N/A,,Mostly Cloudy,160,2007-05-23 11:53:00
6:53 AM,44.1,39.0,82,29.98,10.0,SSE,3.5,-,N/A,,Mostly Cloudy,150,2007-05-23 12:53:00
7:53 AM,46.9,37.9,71,29.98,10.0,South,5.8,-,N/A,,Mostly Cloudy,170,2007-05-23 13:53:00
8:53 AM,50.0,34.0,54,29.99,10.0,South,9.2,-,N/A,,Mostly Cloudy,170,2007-05-23 14:53:00
9:53 AM,52.0,36.0,54,29.98,10.0,SE,5.8,-,N/A,,Overcast,130,2007-05-23 15:53:00
10:53 AM,54.0,33.1,45,29.97,10.0,East,5.8,-,N/A,,Mostly Cloudy,100,2007-05-23 16:53:00
11:53 AM,55.0,32.0,42,29.97,10.0,East,6.9,-,N/A,,Overcast,80,2007-05-23 17:53:00
12:53 PM,54.0,37.0,53,29.96,10.0,NE,11.5,21.9,N/A,,Overcast,40,2007-05-23 18:53:00
1:30 PM,53.6,37.4,54,30.02,10.0,East,15.0,19.6,N/A,Thunderstorm,Thunderstorm,90,2007-05-23 19:30:00
1:53 PM,50.0,37.0,61,29.99,10.0,SSE,20.7,27.6,N/A,Thunderstorm,Thunderstorm,150,2007-05-23 19:53:00
2:02 PM,48.2,37.4,66,30.05,10.0,SE,13.8,26.5,0.00,Rain-Thunderstorm,Light Thunderstorms and Rain,140,2007-05-23 20:02:00
2:37 PM,46.4,39.2,76,30.05,7.0,East,8.1,-,0.07,Rain,Light Rain,100,2007-05-23 20:37:00
2:53 PM,46.0,39.9,79,30.03,8.0,East,6.9,-,0.08,Rain,Light Rain,100,2007-05-23 20:53:00
3:36 PM,41.0,37.4,87,30.08,10.0,NW,17.3,23.0,0.00,,Overcast,320,2007-05-23 21:36:00
3:44 PM,41.0,37.4,87,30.08,10.0,NW,13.8,25.3,0.00,,Overcast,320,2007-05-23 21:44:00
3:53 PM,41.0,39.0,93,30.09,6.0,NNW,13.8,-,0.01,Rain,Light Rain,330,2007-05-23 21:53:00
4:22 PM,41.0,39.2,93,30.09,2.5,NNW,12.7,-,0.04,Rain,Light Rain,340,2007-05-23 22:22:00
4:32 PM,41.0,39.2,93,30.10,4.0,NNW,12.7,-,0.05,Rain,Light Rain,340,2007-05-23 22:32:00
4:53 PM,41.0,39.0,93,30.11,5.0,NNW,9.2,-,0.06,Rain,Light Rain,340,2007-05-23 22:53:00
5:25 PM,41.0,39.2,93,30.11,3.0,North,13.8,-,0.04,Rain,Light Rain,350,2007-05-23 23:25:00
5:53 PM,39.9,37.9,93,30.12,2.5,NNW,9.2,-,0.10,Rain,Light Rain,340,2007-05-23 23:53:00
6:15 PM,39.2,39.2,100,30.11,3.0,North,5.8,-,0.04,Rain,Light Rain,360,2007-05-24 00:15:00
6:53 PM,39.9,39.0,97,30.11,3.0,WSW,5.8,-,0.07,Rain,Light Rain,250,2007-05-24 00:53:00
7:53 PM,41.0,39.9,96,30.14,3.0,South,6.9,-,0.04,Rain,Light Rain,190,2007-05-24 01:53:00
8:48 PM,39.2,37.4,93,30.18,3.0,WSW,5.8,-,0.04,Rain,Light Rain,250,2007-05-24 02:48:00
8:53 PM,39.0,37.9,96,30.16,3.0,WSW,8.1,-,0.05,Rain,Light Rain,250,2007-05-24 02:53:00
9:51 PM,37.4,35.6,93,30.19,10.0,WSW,9.2,-,0.04,,Mostly Cloudy,250,2007-05-24 03:51:00
9:53 PM,37.9,36.0,93,30.17,10.0,WSW,6.9,-,0.04,,Mostly Cloudy,250,2007-05-24 03:53:00
10:53 PM,37.9,36.0,93,30.17,10.0,WSW,9.2,-,N/A,,Mostly Cloudy,240,2007-05-24 04:53:00
11:53 PM,39.0,37.0,93,30.17,10.0,West,5.8,-,N/A,,Overcast,260,2007-05-24 05:53:00